TimePST,TemperatureF,Dew PointF,Humidity,Sea Level PressureIn,VisibilityMPH,Wind Direction,Wind SpeedMPH,Gust SpeedMPH,PrecipitationIn,Events,Conditions,WindDirDegrees,DateUTC
12:53 AM,-18.0,-23.1,78,30.32,10.0,South,10.4,-,N/A,,Clear,170,2013-01-13 08:53:00
1:53 AM,-18.9,-24.0,78,30.34,10.0,South,11.5,-,N/A,,Clear,180,2013-01-13 09:53:00
2:53 AM,-18.9,-23.1,81,30.34,10.0,South,15.0,-,N/A,,Clear,180,2013-01-13 10:53:00
3:53 AM,-18.4,-23.8,76,29.98,10.0,South,12.7,-,N/A,,Clear,170,2013-01-13 11:53:00
4:53 AM,-20.9,-25.1,81,30.35,10.0,South,12.7,-,N/A,,Clear,170,2013-01-13 12:53:00
5:53 AM,-18.9,-24.0,78,30.36,10.0,South,12.7,-,N/A,,Clear,170,2013-01-13 13:53:00
6:53 AM,-18.0,-23.1,78,30.39,10.0,South,12.7,-,N/A,,Partly Cloudy,170,2013-01-13 14:53:00
7:53 AM,-11.9,-17.0,78,30.43,10.0,South,9.2,-,N/A,,Overcast,170,2013-01-13 15:53:00
8:53 AM,-8.0,-13.0,79,30.42,10.0,South,6.9,-,N/A,,Overcast,180,2013-01-13 16:53:00
9:53 AM,-2.9,-8.0,79,30.40,10.0,South,4.6,-,N/A,,Overcast,190,2013-01-13 17:53:00
10:53 AM,3.9,-5.1,66,30.35,10.0,Calm,Calm,-,N/A,,Overcast,0,2013-01-13 18:53:00
11:53 AM,5.0,-2.9,70,30.34,10.0,North,5.8,-,N/A,,Partly Cloudy,350,2013-01-13 19:53:00
12:53 PM,6.8,-2.2,67,29.97,10.0,NNE,12.7,-,N/A,,Clear,20,2013-01-13 20:53:00
1:53 PM,8.1,-0.9,67,30.34,10.0,North,17.3,-,N/A,,Clear,10,2013-01-13 21:53:00
2:53 PM,8.1,-0.9,67,30.36,10.0,North,17.3,-,N/A,,Clear,10,2013-01-13 22:53:00
3:53 PM,6.1,-2.0,69,30.39,10.0,North,6.9,-,N/A,,Clear,360,2013-01-13 23:53:00
4:53 PM,-0.0,-8.0,69,30.44,10.0,North,10.4,-,N/A,,Clear,360,2013-01-14 00:53:00
5:53 PM,-2.0,-7.1,79,30.45,10.0,North,6.9,-,N/A,,Clear,10,2013-01-14 01:53:00
6:53 PM,-8.0,-11.0,86,30.49,10.0,Calm,Calm,-,N/A,,Clear,0,2013-01-14 02:53:00
7:53 PM,-11.0,-15.0,83,30.49,10.0,Calm,Calm,-,N/A,,Partly Cloudy,0,2013-01-14 03:53:00
9:53 PM,-6.0,-13.0,72,30.43,10.0,Calm,Calm,-,N/A,,Clear,0,2013-01-14 05:53:00
10:53 PM,-16.1,-20.0,82,30.45,10.0,South,10.4,-,N/A,,Clear,170,2013-01-14 06:53:00
11:53 PM,-18.9,-24.0,78,30.48,10.0,South,10.4,-,N/A,,Clear,170,2013-01-14 07:53:00